When you browse on this site, cookies collect data to enhance your experience and personalize the content and advertising you see.
Visit our Privacy Policy to learn more. By continuing to use the site, you agree to this use of cookies and data.
  • In Österreich
  • Länderverzeichnis
  • Für 7 Tage
  • Wassertemperatur
  • Satellitenkarten
  • Wetterkarte
  • News
  • Widgets
  • user-avatar
    Anmelden

    Stündliche Wetter Pluzhenicy

    Heute, 20 Februar, Mittwoch

    Zeit Temperatur Niederschläge Wind Luftdruck Luftfeuchtigkeit
    00:00 +1°C° 0.1 mm 4 m/S 743 mmHg 90%
    01:00 +1°C° 0.1 mm 4 m/S 742 mmHg 90%
    02:00 +1°C° 0 mm 4 m/S 742 mmHg 90%
    03:00 +1°C° 0.1 mm 4 m/S 742 mmHg 90%
    04:00 +1°C° 0.1 mm 4 m/S 742 mmHg 90%
    05:00 +1°C° 0.1 mm 4 m/S 741 mmHg 90%
    06:00 +1°C° 0 mm 4 m/S 741 mmHg 89%
    07:00 +1°C° 0 mm 4 m/S 741 mmHg 89%
    08:00 +1°C° 0 mm 4 m/S 741 mmHg 88%
    09:00 +1°C° 0.1 mm 5 m/S 741 mmHg 87%
    10:00 +1°C° 0.1 mm 5 m/S 740 mmHg 86%
    11:00 +1°C° 0.1 mm 5 m/S 740 mmHg 85%
    12:00 +2°C° 0.3 mm 5 m/S 740 mmHg 84%
    13:00 +2°C° 0.3 mm 5 m/S 740 mmHg 84%
    14:00 +2°C° 0.3 mm 5 m/S 739 mmHg 83%
    15:00 +1°C° 0.5 mm 5 m/S 739 mmHg 84%
    16:00 +1°C° 0.5 mm 5 m/S 739 mmHg 84%
    17:00 +1°C° 0.5 mm 5 m/S 739 mmHg 85%
    18:00 0°C° 0.2 mm 5 m/S 739 mmHg 82%
    19:00 -2°C° 0.2 mm 5 m/S 740 mmHg 79%
    20:00 -4°C° 0.2 mm 5 m/S 741 mmHg 76%
    21:00 -4°C° 0.2 mm 5 m/S 741 mmHg 74%
    22:00 -5°C° 0.2 mm 6 m/S 742 mmHg 73%
    23:00 -6°C° 0.2 mm 6 m/S 743 mmHg 72%

    Morgen, 21 Februar, Donnerstag

    Zeit Temperatur Niederschläge Wind Luftdruck Luftfeuchtigkeit
    00:00 -6°C° 0.1 mm 6 m/S 743 mmHg 72%
    01:00 -6°C° 0.1 mm 6 m/S 744 mmHg 73%
    02:00 -7°C° 0.1 mm 7 m/S 744 mmHg 74%
    03:00 -8°C° 0.1 mm 7 m/S 744 mmHg 74%
    04:00 -8°C° 0.1 mm 7 m/S 745 mmHg 74%
    05:00 -8°C° 0.1 mm 7 m/S 745 mmHg 74%
    06:00 -8°C° 0.1 mm 7 m/S 746 mmHg 73%
    07:00 -8°C° 0.1 mm 7 m/S 747 mmHg 73%
    08:00 -8°C° 0.1 mm 7 m/S 748 mmHg 73%
    09:00 -8°C° 0.1 mm 7 m/S 748 mmHg 71%
    10:00 -8°C° 0.1 mm 7 m/S 749 mmHg 68%
    11:00 -8°C° 0.1 mm 7 m/S 750 mmHg 66%
    12:00 -8°C° 0 mm 6 m/S 751 mmHg 65%
    13:00 -8°C° 0 mm 6 m/S 752 mmHg 64%
    14:00 -8°C° 0 mm 6 m/S 753 mmHg 63%
    15:00 -8°C° 0 mm 6 m/S 753 mmHg 63%
    16:00 -9°C° 0 mm 6 m/S 754 mmHg 64%
    17:00 -10°C° 0 mm 5 m/S 755 mmHg 65%
    18:00 -10°C° 0 mm 5 m/S 756 mmHg 65%
    19:00 -10°C° 0 mm 5 m/S 756 mmHg 65%
    20:00 -11°C° 0 mm 5 m/S 757 mmHg 66%
    21:00 -11°C° 0 mm 5 m/S 758 mmHg 66%
    22:00 -11°C° 0 mm 5 m/S 758 mmHg 67%
    23:00 -12°C° 0 mm 5 m/S 759 mmHg 67%

    übermorgen, 22 Februar, Freitag

    Zeit Temperatur Niederschläge Wind Luftdruck Luftfeuchtigkeit
    00:00 -11°C° 0 mm 4 m/S 759 mmHg 68%
    01:00 -11°C° 0 mm 4 m/S 760 mmHg 68%
    02:00 -12°C° 0 mm 4 m/S 760 mmHg 69%
    03:00 -12°C° 0 mm 4 m/S 761 mmHg 70%
    04:00 -12°C° 0 mm 4 m/S 761 mmHg 71%
    05:00 -12°C° 0 mm 4 m/S 762 mmHg 71%
    06:00 -13°C° 0 mm 5 m/S 762 mmHg 72%
    07:00 -13°C° 0 mm 5 m/S 763 mmHg 72%
    08:00 -13°C° 0 mm 5 m/S 763 mmHg 72%
    09:00 -12°C° 0 mm 5 m/S 763 mmHg 69%
    10:00 -11°C° 0 mm 6 m/S 764 mmHg 67%
    11:00 -11°C° 0 mm 6 m/S 764 mmHg 64%
    12:00 -10°C° 0 mm 6 m/S 764 mmHg 61%
    13:00 -10°C° 0 mm 6 m/S 764 mmHg 58%
    14:00 -9°C° 0 mm 6 m/S 765 mmHg 55%
    15:00 -10°C° 0 mm 6 m/S 765 mmHg 58%
    16:00 -10°C° 0 mm 6 m/S 765 mmHg 62%
    17:00 -10°C° 0 mm 6 m/S 766 mmHg 66%
    18:00 -10°C° 0.1 mm 6 m/S 766 mmHg 67%
    19:00 -10°C° 0.1 mm 6 m/S 767 mmHg 68%
    20:00 -11°C° 0.1 mm 6 m/S 767 mmHg 69%
    21:00 -11°C° 0 mm 5 m/S 768 mmHg 70%
    22:00 -12°C° 0 mm 5 m/S 768 mmHg 71%
    23:00 -11°C° 0 mm 4 m/S 768 mmHg 71%

    23 Februar, Samstag

    Zeit Temperatur Niederschläge Wind Luftdruck Luftfeuchtigkeit
    00:00 -11°C° 0 mm 4 m/S 769 mmHg 74%
    01:00 -12°C° 0 mm 4 m/S 769 mmHg 77%
    02:00 -12°C° 0 mm 4 m/S 770 mmHg 79%
    03:00 -13°C° 0 mm 3 m/S 770 mmHg 81%
    04:00 -13°C° 0 mm 3 m/S 770 mmHg 82%
    05:00 -13°C° 0 mm 3 m/S 770 mmHg 83%
    06:00 -13°C° 0 mm 3 m/S 770 mmHg 84%
    07:00 -13°C° 0 mm 3 m/S 770 mmHg 84%
    08:00 -13°C° 0 mm 3 m/S 771 mmHg 85%
    09:00 -10°C° 0 mm 2 m/S 770 mmHg 78%
    10:00 -9°C° 0 mm 2 m/S 770 mmHg 72%
    11:00 -8°C° 0 mm 2 m/S 770 mmHg 65%
    12:00 -8°C° 0 mm 2 m/S 770 mmHg 63%
    13:00 -7°C° 0 mm 2 m/S 770 mmHg 62%
    14:00 -7°C° 0 mm 2 m/S 769 mmHg 60%
    15:00 -7°C° 0 mm 2 m/S 769 mmHg 62%
    16:00 -7°C° 0 mm 2 m/S 769 mmHg 64%
    17:00 -6°C° 0 mm 2 m/S 768 mmHg 66%
    18:00 -6°C° 0.1 mm 2 m/S 768 mmHg 70%
    19:00 -7°C° 0.1 mm 2 m/S 768 mmHg 74%
    20:00 -7°C° 0.1 mm 2 m/S 767 mmHg 77%
    21:00 -6°C° 0.1 mm 2 m/S 767 mmHg 80%
    22:00 -7°C° 0.1 mm 3 m/S 766 mmHg 84%
    23:00 -7°C° 0.1 mm 3 m/S 766 mmHg 87%

    24 Februar, Sonntag

    Zeit Temperatur Niederschläge Wind Luftdruck Luftfeuchtigkeit
    00:00 -7°C° 0.1 mm 3 m/S 765 mmHg 88%
    01:00 -5°C° 0.1 mm 2 m/S 765 mmHg 89%
    02:00 -5°C° 0.1 mm 2 m/S 765 mmHg 90%
    03:00 -5°C° 0.1 mm 2 m/S 765 mmHg 91%
    04:00 -5°C° 0.1 mm 2 m/S 765 mmHg 93%
    05:00 -3°C° 0.1 mm 1 m/S 764 mmHg 94%
    06:00 -2°C° 0 mm 1 m/S 765 mmHg 94%
    07:00 -2°C° 0 mm 1 m/S 765 mmHg 95%
    08:00 -2°C° 0 mm 1 m/S 765 mmHg 96%
    09:00 -1°C° 0 mm 1 m/S 765 mmHg 94%
    10:00 0°C° 0 mm 1 m/S 765 mmHg 92%
    11:00 +1°C° 0 mm 1 m/S 766 mmHg 91%
    12:00 +1°C° 0 mm 1 m/S 766 mmHg 90%
    13:00 +1°C° 0 mm 0 m/S 766 mmHg 89%
    14:00 +1°C° 0 mm 0 m/S 766 mmHg 88%
    15:00 +1°C° 0 mm 0 m/S 765 mmHg 90%
    16:00 +2°C° 0 mm 1 m/S 765 mmHg 92%
    17:00 +1°C° 0 mm 1 m/S 765 mmHg 94%
    18:00 +1°C° 0 mm 1 m/S 765 mmHg 94%
    19:00 +1°C° 0 mm 1 m/S 765 mmHg 94%
    20:00 +1°C° 0 mm 1 m/S 765 mmHg 94%
    21:00 +1°C° 0 mm 1 m/S 765 mmHg 93%
    22:00 -1°C° 0 mm 2 m/S 765 mmHg 92%
    23:00 -1°C° 0 mm 2 m/S 765 mmHg 90%

    25 Februar, Montag

    Zeit Temperatur Niederschläge Wind Luftdruck Luftfeuchtigkeit
    00:00 -1°C° 0 mm 2 m/S 764 mmHg 90%
    01:00 -1°C° 0 mm 2 m/S 764 mmHg 91%
    02:00 -2°C° 0 mm 2 m/S 764 mmHg 91%
    03:00 -1°C° 0 mm 3 m/S 763 mmHg 91%
    04:00 -1°C° 0 mm 3 m/S 762 mmHg 92%
    05:00 -1°C° 0 mm 3 m/S 762 mmHg 93%
    06:00 -1°C° 0 mm 3 m/S 762 mmHg 94%
    07:00 -1°C° 0 mm 3 m/S 761 mmHg 94%
    08:00 +1°C° 0 mm 2 m/S 761 mmHg 95%
    09:00 0°C° 0 mm 3 m/S 761 mmHg 92%
    10:00 0°C° 0 mm 3 m/S 761 mmHg 89%
    11:00 0°C° 0 mm 4 m/S 761 mmHg 86%
    12:00 0°C° 0 mm 4 m/S 760 mmHg 84%
    13:00 0°C° 0 mm 4 m/S 760 mmHg 83%
    14:00 0°C° 0 mm 4 m/S 760 mmHg 82%
    15:00 -1°C° 0 mm 4 m/S 760 mmHg 82%
    16:00 0°C° 0 mm 3 m/S 760 mmHg 81%
    17:00 0°C° 0 mm 3 m/S 760 mmHg 81%
    18:00 0°C° 0 mm 3 m/S 760 mmHg 82%
    19:00 0°C° 0 mm 3 m/S 760 mmHg 83%
    20:00 -1°C° 0 mm 3 m/S 760 mmHg 84%
    21:00 -1°C° 0 mm 3 m/S 760 mmHg 85%
    22:00 -1°C° 0 mm 3 m/S 760 mmHg 86%
    23:00 -1°C° 0 mm 3 m/S 760 mmHg 87%
    Mehr zeigen